This demonstration page uses our WeatherBlox Daily Observations layout. Learn more.

Left ArrowRight Arrow

39.12711, -84.51439

Hourly Observations for August 14, 2018

Temp ( °F °C ) Dew Point ( °F °C ) Humidity (%) Winds ( mph kmh ) Pressure ( in mb ) Visibility ( mi km ) Precip ( " mm )
12:53 am 00:53 Clear 65 18.3 65 18.3 100 100 N N/A 30.03 1017 8 13 N/A
1:53 am 01:53 Clear with Mist and Fog 65 18.3 64 17.8 97 97 N N/A 30.02 1017 5 8 N/A
2:53 am 02:53 Clear with Mist and Fog 64 17.8 64 17.8 100 100 N N/A 30.01 1016 6 10 N/A
3:53 am 03:53 Clear with Mist and Fog 63 17.2 63 17.2 100 100 N N/A 30.00 1016 4 6 N/A
4:30 am 04:30 Clear with Mist and Fog 63 17.2 63 17.2 100 100 N N/A 30.00 1016 2 3 N/A
4:45 am 04:45 Clear with Mist and Fog 62 16.7 62 16.7 100 100 N N/A 30.00 1016 1 1 N/A
4:49 am 04:49 Clear with Mist and Fog 63 17 63 17 100 100 N N/A 30.00 1016 2 3 N/A
4:53 am 04:53 Clear with Mist and Fog 63 17.2 63 17.2 100 100 N N/A 30.01 1016 6 10 N/A
5:12 am 05:12 Clear with Mist and Fog 62 16.7 62 16.7 100 100 N N/A 30.00 1016 2 3 N/A
5:37 am 05:37 Clear with Mist and Fog 63 17.2 63 17.2 100 100 N N/A 30.00 1016 3 5 N/A
5:50 am 05:50 Partly Cloudy with Mist and Fog 64 18 64 18 100 100 N N/A 30.00 1016 5 8 N/A
5:53 am 05:53 Partly Cloudy with Mist and Fog 64 17.8 64 17.8 100 100 N N/A 30.01 1016 5 8 N/A
6:11 am 06:11 Mostly Cloudy with Mist and Fog 63 17.2 63 17.2 100 100 N N/A 30.00 1016 6 10 N/A
6:22 am 06:22 Mostly Cloudy with Mist and Fog 63 17.2 63 17.2 100 100 N N/A 30.00 1016 1 1 N/A
6:34 am 06:34 Mostly Cloudy with Fog 63 17.2 63 17.2 100 100 N N/A 30.00 1016 0 0 N/A
6:53 am 06:53 Mostly Cloudy with Fog 63 17.2 63 17.2 100 100 N N/A 30.03 1017 5 8 N/A
7:53 am 07:53 Mostly Cloudy with Fog 65 18.3 65 18.3 100 100 N N/A 30.03 1017 5 8 N/A
8:53 am 08:53 Mostly Cloudy with Fog 67 19.4 67 19.4 100 100 N N/A 30.04 1017 0 0 N/A
9:00 am 09:00 Cloudy with Mist and Fog 67 19.4 67 19.4 100 100 N N/A 30.03 1017 1 2 N/A
9:11 am 09:11 Mostly Cloudy with Mist and Fog 68 20 68 20 100 100 N N/A 30.03 1017 3 4 N/A
9:24 am 09:24 Partly Cloudy with Mist and Fog 69 20.6 69 20.6 100 100 N N/A 30.03 1017 5 8 N/A
9:53 am 09:53 Sunny 73 22.8 70 21.1 90 90 N N/A 30.04 1017 10 16 N/A
10:53 am 10:53 Sunny 79 26.1 71 21.7 77 77 N N/A 30.04 1017 10 16 N/A
11:53 am 11:53 Sunny 82 27.8 68 20 63 63 W 7 11 30.04 1017 10 16 N/A
12:53 pm 12:53 Mostly Sunny 83 28.3 67 19.4 59 59 VRB 3 6 30.03 1017 10 16 N/A
1:53 pm 13:53 Mostly Sunny 84 28.9 67 19.4 57 57 S 6 9 30.01 1016 10 16 N/A
2:53 pm 14:53 Partly Cloudy 85 29.4 65 18.3 51 51 VRB 5 7 30.00 1016 10 16 N/A
3:53 pm 15:53 Partly Cloudy 86 30 66 18.9 51 51 S 5 7 29.98 1015 10 16 N/A
4:53 pm 16:53 Partly Cloudy 86 30 65 18.3 49 49 S 5 7 29.97 1015 10 16 N/A
5:53 pm 17:53 Mostly Cloudy 83 28.3 69 20.6 63 63 SW 3 6 29.97 1015 10 16 N/A
6:53 pm 18:53 Cloudy 83 28.3 67 19.4 59 59 W 9 15 29.97 1015 10 16 N/A
7:53 pm 19:53 Mostly Cloudy 83 28.3 66 18.9 57 57 NW 5 7 29.98 1015 10 16 N/A
8:53 pm 20:53 Cloudy 74 23.3 70 21.1 88 88 N N/A 29.99 1016 10 16 N/A
9:53 pm 21:53 Clear 72 22.2 70 21.1 94 94 N N/A 30.00 1016 10 16 N/A
10:53 pm 22:53 Clear 71 21.7 69 20.6 94 94 N N/A 30.01 1016 10 16 N/A
11:53 pm 23:53 Clear 71 21.7 69 20.6 94 94 N N/A 30.01 1016 9 14 N/A

Powered by AerisWeather